Zurück zum Katalog

STARLINK-3982

AktivKommunikationVLEO
NORAD 52614·PAYLOAD·🇺🇸 United States

Gestartet May 14, 2022 von Cape Canaveral Space Force Station

Loading…

Nächste Überflüge (nächste 24 Stunden)

TLE

AktuellSource: CelesTrak SupGP

Epoche: Sep 14, 2026, 13:13 UTC

1 52614C 22052S   26257.55118056 -.00007395  00000+0 -93237-4 0  2572
2 52614  53.2069  42.2463 0002004 179.0600 260.3898 15.58973875    10

Verfolge STARLINK-3982 in Echtzeit mit AllMySat

Download on the App Store